• Join FlightAware (Why Join?)
  • Login
  • US Flag GB Flag 
14:46 EDT


 

Airport Tracker/Info


-or-


 

Live Flight TrackerFlight Track Log ✈ UAL4550 ✈ 23-Apr-2013 ✈ KSAT - KIAH

Flight Track Log - Related Links

Times and Time Zones

All times are in EDT time to prevent confusion due to time zone crossing. See the UAL4550 flight status page for this flight to view local times or setup timezone preferences in your user account.

Time Position Orientation Groundspeed Altitude Reporting Facility
EDT Latitude Longitude Course Direction KTS MPH feet Rate Location/Type
15:21 29.5247 -98.4636 132° Southeast 154 177 1,400  Level Houston Center
15:21 29.5083 -98.4425 132° Southeast 167 192 2,600 2,160 Climbing Houston Center
15:22 29.4942 -98.4267 136° Southeast 176 203 3,400 1,800 Climbing Houston Center
15:22 29.4681 -98.3950 133° Southeast 203 234 4,500 2,100 Climbing Houston Center
15:23 29.4758 -98.3131 84° East 254 292 7,100 2,220 Climbing Houston Center
15:24 29.5086 -98.2239 67° East 285 328 9,100 1,380 Climbing Houston Center
15:25 29.5406 -98.1350 68° East 303 349 10,000 720 Climbing Houston Center
15:26 29.5817 -98.0206 68° East 358 412 10,700 840 Climbing Houston Center
15:27 29.6225 -97.9092 67° East 377 434 11,800 900 Climbing Houston Center
15:28 29.6533 -97.8061 71° East 390 449 12,600 540 Climbing Houston Center
15:30 29.6497 -97.6544 92° East 398 458 13,000 420 Climbing Houston Center
15:31 29.6403 -97.5269 95° East 399 459 13,500 720 Climbing Houston Center
15:32 29.6322 -97.3992 94° East 401 461 14,600 960 Climbing Houston Center
15:33 29.6233 -97.2706 95° East 401 461 15,600 960 Climbing Houston Center
15:34 29.6144 -97.1406 94° East 407 468 16,600 660 Climbing Houston Center
15:35 29.6061 -97.0081 94° East 411 473 17,000 -240 Climbing Houston Center
15:36 29.5953 -96.8703 95° East 423 487 16,200 -1,020 Descending Houston Center
15:37 29.5844 -96.7125 94° East 407 468 15,000 -1,260 Descending Houston Center
15:38 29.5756 -96.5842 95° East 401 461 13,600 -1,500 Descending Houston Center
15:39 29.5686 -96.4906 95° East 400 460 12,500 -1,440 Descending Houston Center
15:39 29.5669 -96.4575 93° East 397 457 12,100 -1,380 Descending Houston Center
15:40 29.5558 -96.3358 96° East 380 437 10,700 -1,080 Descending Houston Center
15:41 29.5483 -96.2181 94° East 374 430 9,900 -360 Descending Houston Center
15:42 29.5778 -96.1031 74° East 344 396 10,000 -240 Climbing Houston Center
15:43 29.6242 -96.0089 60° Northeast 308 354 9,500 -960 Descending Houston Center
15:44 29.6911 -95.9339 44° Northeast 305 351 8,000 -1,200 Descending Houston Center
15:45 29.7572 -95.8975 26° Northeast 298 343 7,100 -480 Descending Houston Center
15:46 29.8175 -95.8467 36° Northeast 268 308 7,000 -180 Descending Houston Center
15:47 29.8800 -95.7894 38° Northeast 254 292 6,800 -600 Descending Houston Center
15:48 29.9306 -95.7428 39° Northeast 250 288 5,900 -1,020 Descending Houston Center
15:49 29.9806 -95.6933 41° Northeast 238 274 4,900 -900 Descending Houston Center
15:50 29.9922 -95.6125 81° East 231 266 4,000 -840 Descending Houston Center
15:51 29.9925 -95.5450 90° East 224 258 3,300 -1,080 Descending Houston Center
15:52 29.9919 -95.4678 90° East 222 255 1,900 -1,380 Descending Houston Center